Location: Neuvy Saint Sepulchre
(46.5953°N, 1.8122°E)
Time: 13:00:51
(UTC+01:00)

Envisat - Pass Details

Date: 22 October 2021
Orbit: 764 x 766 km, 98.2° (Epoch: 29 November)

Event Time Altitude Azimuth Distance (km) Brightness Sun altitude
Rises 05:52:30 0° 27° (NNE) 3,243 6.8 -26.0°
Reaches altitude 10° 05:55:26 10° 44° (NE) 2,310 6.2 -25.5°
Maximum altitude 05:59:07 20° 91° (E) 1,719 5.6 -24.8°
Drops below altitude 10° 06:02:47 10° 137° (SE) 2,297 5.9 -24.2°
Sets 06:05:41 0° 155° (SSE) 3,217 6.4 -23.7°
